Location: Vesunti
(61.5000°N, 22.8333°E)
Time: 06:23:24
(UTC+00:00)

Lacrosse 5 - Pass Details

Date: 17 February 2020
Orbit: 715 x 724 km, 57.0° (Epoch: 21 March)

Event Time Altitude Azimuth Distance (km) Brightness Sun altitude
Exits shadow 01:20:09 13° 115° (ESE) 2,030 4.4 -33.1°
Drops below altitude 10° 01:20:38 10° 114° (ESE) 2,210 4.6 -33.1°
Sets 01:23:04 0° 109° (ESE) 3,131 5.5 -32.9°
